| time (UTC) | temp F | wind direction | speed MPH | gust MPH | rain 1hr in | rain 24hr in | rain mn in | humidity % | barometer mb |
| 20260508125504 | 62 | 61 | 3.0 | 10.0 | 0.00 | 0.00 | 0.00 | 60 | 1018.7 |
| 20260508125218 | 62 | 61 | 3.0 | 10.0 | 0.00 | 0.00 | 0.00 | 60 | 1018.7 |
| 20260508124505 | 62 | 46 | 3.0 | 8.0 | 0.00 | 0.00 | 0.00 | 61 | 1018.7 |
| 20260508124003 | 61 | 42 | 3.0 | 8.0 | 0.00 | 0.00 | 0.00 | 61 | 1018.6 |
| 20260508123503 | 61 | 42 | 4.0 | 9.0 | 0.00 | 0.00 | 0.00 | 61 | 1018.6 |
| 20260508123003 | 61 | 44 | 3.0 | 9.0 | 0.00 | 0.00 | 0.00 | 61 | 1018.8 |
| 20260508122505 | 61 | 59 | 3.0 | 9.0 | 0.00 | 0.00 | 0.00 | 61 | 1018.7 |
| 20260508122005 | 62 | 92 | 3.0 | 7.0 | 0.00 | 0.00 | 0.00 | 61 | 1018.8 |
| 20260508121505 | 62 | 93 | 4.0 | 12.0 | 0.00 | 0.00 | 0.00 | 60 | 1018.7 |
| 20260508121004 | 61 | 73 | 4.0 | 12.0 | 0.00 | 0.00 | 0.00 | 61 | 1018.6 |
| 20260508120504 | 61 | 69 | 3.0 | 10.0 | 0.00 | 0.00 | 0.00 | 61 | 1018.7 |
| 20260508120005 | 61 | 88 | 3.0 | 10.0 | 0.00 | 0.00 | 0.00 | 62 | 1018.7 |
| 20260508115503 | 60 | 89 | 2.0 | 7.0 | 0.00 | 0.00 | 0.00 | 62 | 1018.7 |
| 20260508115004 | 60 | 79 | 3.0 | 9.0 | 0.00 | 0.00 | 0.00 | 62 | 1018.7 |
| 20260508114721 | 61 | 78 | 3.0 | 9.0 | 0.00 | 0.00 | 0.00 | 61 | 1018.7 |
| 20260508114003 | 61 | 101 | 2.0 | 7.0 | 0.00 | 0.00 | 0.00 | 62 | 1018.7 |
| 20260508113719 | 61 | 113 | 3.0 | 8.0 | 0.00 | 0.00 | 0.00 | 63 | 1018.8 |
| 20260508113005 | 61 | 116 | 3.0 | 8.0 | 0.00 | 0.00 | 0.00 | 62 | 1018.8 |
| 20260508112503 | 61 | 114 | 2.0 | 7.0 | 0.00 | 0.00 | 0.00 | 62 | 1018.8 |
| 20260508112220 | 61 | 107 | 2.0 | 7.0 | 0.00 | 0.00 | 0.00 | 62 | 1018.7 |
| 20260508111503 | 61 | 88 | 3.0 | 9.0 | 0.00 | 0.00 | 0.00 | 62 | 1018.9 |
| 20260508111218 | 61 | 98 | 4.0 | 12.0 | 0.00 | 0.00 | 0.00 | 63 | 1018.8 |
| 20260508110505 | 60 | 93 | 3.0 | 12.0 | 0.00 | 0.00 | 0.00 | 62 | 1018.9 |
| 20260508110005 | 61 | 75 | 2.0 | 9.0 | 0.00 | 0.00 | 0.00 | 63 | 1018.9 |
| 20260508105508 | 61 | 77 | 3.0 | 9.0 | 0.00 | 0.00 | 0.00 | 63 | 1018.9 |
| 20260508105003 | 61 | 69 | 3.0 | 12.0 | 0.00 | 0.00 | 0.00 | 64 | 1018.9 |
| 20260508104506 | 60 | 80 | 3.0 | 12.0 | 0.00 | 0.00 | 0.00 | 63 | 1018.9 |
| 20260508104009 | 60 | 125 | 3.0 | 11.0 | 0.00 | 0.00 | 0.00 | 63 | 1018.9 |
| 20260508103503 | 61 | 112 | 4.0 | 11.0 | 0.00 | 0.00 | 0.00 | 62 | 1019.0 |
| 20260508103005 | 61 | 75 | 3.0 | 9.0 | 0.00 | 0.00 | 0.00 | 63 | 1018.9 |
| 20260508102505 | 61 | 73 | 3.0 | 10.0 | 0.00 | 0.00 | 0.00 | 64 | 1018.8 |
| 20260508102007 | 60 | 86 | 2.0 | 10.0 | 0.00 | 0.00 | 0.00 | 66 | 1019.0 |
| 20260508101503 | 59 | 96 | 3.0 | 8.0 | 0.00 | 0.00 | 0.00 | 65 | 1019.0 |
| 20260508101003 | 59 | 92 | 4.0 | 9.0 | 0.00 | 0.00 | 0.00 | 65 | 1019.0 |
| 20260508100503 | 59 | 89 | 3.0 | 9.0 | 0.00 | 0.00 | 0.00 | 67 | 1018.9 |
| 20260508100010 | 58 | 78 | 3.0 | 7.0 | 0.00 | 0.00 | 0.00 | 68 | 1018.9 |
| 20260508095720 | 58 | 75 | 3.0 | 9.0 | 0.00 | 0.00 | 0.00 | 68 | 1019.0 |
| 20260508095219 | 59 | 62 | 3.0 | 11.0 | 0.00 | 0.00 | 0.00 | 67 | 1019.0 |
| 20260508094505 | 59 | 66 | 3.0 | 11.0 | 0.00 | 0.00 | 0.00 | 68 | 1019.0 |
| 20260508094008 | 59 | 74 | 2.0 | 9.0 | 0.00 | 0.00 | 0.00 | 70 | 1019.0 |
| 20260508093503 | 58 | 83 | 2.0 | 7.0 | 0.00 | 0.00 | 0.00 | 70 | 1019.1 |
| 20260508093005 | 58 | 79 | 3.0 | 10.0 | 0.00 | 0.00 | 0.00 | 71 | 1019.1 |
| 20260508092504 | 58 | 95 | 3.0 | 10.0 | 0.00 | 0.00 | 0.00 | 71 | 1019.0 |
| 20260508092003 | 58 | 114 | 3.0 | 9.0 | 0.00 | 0.00 | 0.00 | 72 | 1019.2 |
| 20260508091718 | 57 | 103 | 3.0 | 10.0 | 0.00 | 0.00 | 0.00 | 73 | 1019.3 |
| 20260508091008 | 57 | 77 | 3.0 | 10.0 | 0.00 | 0.00 | 0.00 | 71 | 1019.3 |
| 20260508090503 | 57 | 77 | 3.0 | 10.0 | 0.00 | 0.00 | 0.00 | 70 | 1019.3 |
| 20260508090003 | 58 | 87 | 3.0 | 8.0 | 0.00 | 0.00 | 0.00 | 70 | 1019.3 |
| 20260508085722 | 58 | 90 | 3.0 | 9.0 | 0.00 | 0.00 | 0.00 | 70 | 1019.3 |
| 20260508085003 | 58 | 102 | 4.0 | 11.0 | 0.00 | 0.00 | 0.00 | 71 | 1019.4 |
| 20260508084510 | 58 | 104 | 5.0 | 11.0 | 0.00 | 0.00 | 0.00 | 71 | 1019.3 |
| 20260508084005 | 58 | 118 | 5.0 | 12.0 | 0.00 | 0.00 | 0.00 | 71 | 1019.4 |
| 20260508083503 | 58 | 117 | 5.0 | 12.0 | 0.00 | 0.00 | 0.00 | 72 | 1019.4 |
| 20260508083008 | 57 | 114 | 5.0 | 10.0 | 0.00 | 0.00 | 0.00 | 73 | 1019.4 |
| 20260508082512 | 57 | 130 | 5.0 | 10.0 | 0.00 | 0.00 | 0.00 | 73 | 1019.3 |
| 20260508082223 | 57 | 128 | 5.0 | 10.0 | 0.00 | 0.00 | 0.00 | 73 | 1019.3 |
| 20260508081505 | 57 | 116 | 5.0 | 11.0 | 0.00 | 0.00 | 0.00 | 73 | 1019.2 |
| 20260508081004 | 57 | 113 | 4.0 | 11.0 | 0.00 | 0.00 | 0.00 | 74 | 1019.2 |
| 20260508080506 | 56 | 121 | 4.0 | 11.0 | 0.00 | 0.00 | 0.00 | 74 | 1019.2 |
| 20260508080003 | 56 | 120 | 3.0 | 10.0 | 0.00 | 0.00 | 0.00 | 75 | 1019.1 |
| 20260508075505 | 56 | 128 | 4.0 | 10.0 | 0.00 | 0.00 | 0.00 | 76 | 1019.1 |
| 20260508075216 | 56 | 123 | 4.0 | 12.0 | 0.00 | 0.00 | 0.00 | 76 | 1019.1 |
| 20260508074504 | 55 | 106 | 4.0 | 12.0 | 0.00 | 0.00 | 0.00 | 76 | 1019.2 |
| 20260508074004 | 55 | 79 | 3.0 | 9.0 | 0.00 | 0.00 | 0.00 | 77 | 1019.1 |
| 20260508073503 | 55 | 71 | 3.0 | 12.0 | 0.00 | 0.00 | 0.00 | 78 | 1019.1 |
| 20260508073003 | 54 | 89 | 3.0 | 12.0 | 0.00 | 0.00 | 0.00 | 79 | 1019.2 |
| 20260508072505 | 54 | 93 | 3.0 | 9.0 | 0.00 | 0.00 | 0.00 | 79 | 1019.2 |
| 20260508072003 | 54 | 83 | 3.0 | 9.0 | 0.00 | 0.00 | 0.00 | 80 | 1019.2 |
| 20260508071505 | 54 | 94 | 3.0 | 8.0 | 0.00 | 0.00 | 0.00 | 82 | 1019.2 |
| 20260508071218 | 54 | 96 | 3.0 | 8.0 | 0.00 | 0.00 | 0.00 | 83 | 1019.2 |
| 20260508070505 | 53 | 78 | 3.0 | 11.0 | 0.00 | 0.00 | 0.00 | 84 | 1019.2 |
| 20260508070003 | 52 | 78 | 3.0 | 11.0 | 0.00 | 0.00 | 0.00 | 86 | 1019.1 |
| 20260508065503 | 52 | 84 | 3.0 | 8.0 | 0.00 | 0.00 | 0.00 | 87 | 1019.0 |
| 20260508065003 | 51 | 86 | 2.0 | 8.0 | 0.00 | 0.00 | 0.00 | 89 | 1019.0 |
| 20260508064508 | 51 | 89 | 2.0 | 7.0 | 0.00 | 0.00 | 0.00 | 91 | 1019.0 |
| 20260508064003 | 50 | 92 | 2.0 | 6.0 | 0.00 | 0.00 | 0.00 | 91 | 1019.0 |
| 20260508063504 | 50 | 91 | 2.0 | 6.0 | 0.00 | 0.00 | 0.00 | 92 | 1019.0 |
| 20260508063004 | 49 | 81 | 2.0 | 7.0 | 0.00 | 0.00 | 0.00 | 94 | 1018.9 |
| 20260508062505 | 49 | 77 | 2.0 | 7.0 | 0.00 | 0.00 | 0.00 | 94 | 1018.8 |
| 20260508062006 | 48 | 69 | 1.0 | 4.0 | 0.00 | 0.00 | 0.00 | 95 | 1018.8 |
| 20260508061719 | 48 | 59 | 1.0 | 4.0 | 0.00 | 0.00 | 0.00 | 95 | 1018.8 |
| 20260508061222 | 48 | 66 | 1.0 | 6.0 | 0.00 | 0.00 | 0.00 | 96 | 1018.6 |
| 20260508060506 | 47 | 60 | 1.0 | 6.0 | 0.00 | 0.00 | 0.00 | 96 | 1018.7 |
| 20260508060003 | 46 | 60 | 1.0 | 6.0 | 0.00 | 0.00 | 0.00 | 96 | 1018.7 |
| 20260508055503 | 46 | 62 | 1.0 | 4.0 | 0.00 | 0.00 | 0.00 | 96 | 1018.7 |
| 20260508055003 | 46 | 65 | 1.0 | 4.0 | 0.00 | 0.00 | 0.00 | 96 | 1018.8 |
| 20260508054508 | 45 | 62 | 1.0 | 3.0 | 0.00 | 0.00 | 0.00 | 96 | 1018.7 |
| 20260508054220 | 45 | 58 | 1.0 | 3.0 | 0.00 | 0.00 | 0.00 | 96 | 1018.7 |
| 20260508053718 | 45 | 54 | 2.0 | 6.0 | 0.00 | 0.00 | 0.00 | 96 | 1018.7 |
| 20260508053003 | 44 | 64 | 2.0 | 6.0 | 0.00 | 0.00 | 0.00 | 96 | 1018.7 |
| 20260508052717 | 44 | 64 | 1.0 | 4.0 | 0.00 | 0.00 | 0.00 | 96 | 1018.7 |
| 20260508052005 | 44 | 50 | 2.0 | 4.0 | 0.00 | 0.00 | 0.00 | 96 | 1018.5 |
| 20260508051503 | 44 | 45 | 1.0 | 4.0 | 0.00 | 0.00 | 0.00 | 96 | 1018.6 |
| 20260508051005 | 43 | 45 | 1.0 | 5.0 | 0.00 | 0.00 | 0.00 | 96 | 1018.5 |
| 20260508050716 | 43 | 45 | 1.0 | 5.0 | 0.00 | 0.00 | 0.00 | 96 | 1018.5 |
| 20260508050003 | 43 | 38 | 0.0 | 2.0 | 0.00 | 0.00 | 0.00 | 96 | 1018.5 |
| 20260508045503 | 43 | 0 | 0.0 | 0.0 | 0.00 | 0.00 | 0.00 | 96 | 1018.5 |
| 20260508045004 | 43 | 0 | 0.0 | 0.0 | 0.00 | 0.00 | 0.00 | 96 | 1018.5 |
| 20260508044506 | 42 | 0 | 0.0 | 0.0 | 0.00 | 0.00 | 0.00 | 96 | 1018.4 |
| 20260508044219 | 42 | 0 | 0.0 | 0.0 | 0.00 | 0.00 | 0.00 | 95 | 1018.4 |
| 20260508043504 | 42 | 0 | 0.0 | 0.0 | 0.00 | 0.00 | 0.00 | 95 | 1018.5 |
| 20260508043006 | 42 | 0 | 0.0 | 0.0 | 0.00 | 0.00 | 0.00 | 95 | 1018.4 |
| 20260508042503 | 42 | 0 | 0.0 | 0.0 | 0.00 | 0.00 | 0.00 | 95 | 1018.4 |
| 20260508042007 | 42 | 0 | 0.0 | 0.0 | 0.00 | 0.00 | 0.00 | 95 | 1018.4 |
| 20260508041504 | 42 | 0 | 0.0 | 0.0 | 0.00 | 0.00 | 0.00 | 95 | 1018.4 |
| 20260508041003 | 42 | 0 | 0.0 | 0.0 | 0.00 | 0.00 | 0.00 | 95 | 1018.3 |
| 20260508040506 | 42 | 0 | 0.0 | 0.0 | 0.00 | 0.00 | 0.00 | 95 | 1018.3 |
| 20260508040003 | 42 | 0 | 0.0 | 0.0 | 0.00 | 0.00 | 0.00 | 95 | 1018.3 |
| 20260508035505 | 42 | 0 | 0.0 | 0.0 | 0.00 | 0.00 | 0.00 | 95 | 1018.3 |
| 20260508035219 | 42 | 0 | 0.0 | 0.0 | 0.00 | 0.00 | 0.00 | 95 | 1018.3 |
| 20260508034503 | 42 | 69 | 0.0 | 1.0 | 0.00 | 0.00 | 0.00 | 95 | 1018.2 |
| 20260508034004 | 43 | 69 | 0.0 | 1.0 | 0.00 | 0.00 | 0.00 | 95 | 1018.2 |
| 20260508033503 | 43 | 69 | 0.0 | 2.0 | 0.00 | 0.00 | 0.00 | 95 | 1018.2 |
| 20260508033004 | 43 | 69 | 0.0 | 3.0 | 0.00 | 0.00 | 0.00 | 95 | 1018.2 |
| 20260508032503 | 43 | 68 | 1.0 | 3.0 | 0.00 | 0.00 | 0.00 | 95 | 1018.2 |
| 20260508032219 | 43 | 68 | 0.0 | 3.0 | 0.00 | 0.00 | 0.00 | 95 | 1018.2 |
| 20260508031503 | 43 | 59 | 1.0 | 4.0 | 0.00 | 0.00 | 0.00 | 95 | 1018.2 |
| 20260508031005 | 43 | 59 | 1.0 | 4.0 | 0.00 | 0.00 | 0.00 | 95 | 1018.1 |
| 20260508030503 | 43 | 61 | 1.0 | 4.0 | 0.00 | 0.00 | 0.00 | 95 | 1018.1 |
| 20260508030005 | 43 | 46 | 1.0 | 4.0 | 0.00 | 0.00 | 0.00 | 94 | 1018.1 |
| 20260508025503 | 43 | 37 | 0.0 | 3.0 | 0.00 | 0.00 | 0.00 | 94 | 1018.2 |
| 20260508025005 | 43 | 29 | 0.0 | 3.0 | 0.00 | 0.00 | 0.00 | 94 | 1018.2 |
| 20260508024503 | 43 | 37 | 1.0 | 3.0 | 0.00 | 0.00 | 0.00 | 94 | 1018.1 |
| 20260508024003 | 43 | 44 | 1.0 | 3.0 | 0.00 | 0.00 | 0.00 | 94 | 1018.2 |
| 20260508023505 | 43 | 44 | 1.0 | 3.0 | 0.00 | 0.00 | 0.00 | 94 | 1018.2 |
| 20260508023003 | 43 | 45 | 1.0 | 2.0 | 0.00 | 0.00 | 0.00 | 94 | 1018.2 |
| 20260508022719 | 43 | 51 | 1.0 | 3.0 | 0.00 | 0.00 | 0.00 | 94 | 1018.2 |
| 20260508022004 | 43 | 65 | 0.0 | 3.0 | 0.00 | 0.00 | 0.00 | 94 | 1018.2 |
| 20260508021503 | 43 | 0 | 0.0 | 0.0 | 0.00 | 0.00 | 0.00 | 94 | 1018.2 |
| 20260508021004 | 43 | 74 | 0.0 | 2.0 | 0.00 | 0.00 | 0.00 | 94 | 1018.2 |
| 20260508020719 | 43 | 74 | 0.0 | 2.0 | 0.00 | 0.00 | 0.00 | 94 | 1018.3 |
| 20260508020003 | 43 | 74 | 1.0 | 3.0 | 0.00 | 0.00 | 0.00 | 94 | 1018.3 |
| 20260508015506 | 43 | 74 | 1.0 | 2.0 | 0.00 | 0.00 | 0.00 | 94 | 1018.4 |
| 20260508015004 | 43 | 74 | 1.0 | 3.0 | 0.00 | 0.00 | 0.00 | 94 | 1018.5 |
| 20260508014503 | 43 | 74 | 0.0 | 3.0 | 0.00 | 0.00 | 0.00 | 94 | 1018.4 |
| 20260508014007 | 43 | 0 | 0.0 | 0.0 | 0.00 | 0.00 | 0.00 | 93 | 1018.4 |
| 20260508013503 | 43 | 0 | 0.0 | 0.0 | 0.00 | 0.00 | 0.00 | 94 | 1018.4 |
| 20260508013006 | 43 | 0 | 0.0 | 0.0 | 0.00 | 0.00 | 0.00 | 94 | 1018.4 |
| 20260508012505 | 43 | 74 | 0.0 | 3.0 | 0.00 | 0.00 | 0.00 | 93 | 1018.5 |
| 20260508012003 | 43 | 74 | 1.0 | 3.0 | 0.00 | 0.00 | 0.00 | 93 | 1018.4 |
| 20260508011506 | 43 | 74 | 1.0 | 2.0 | 0.00 | 0.00 | 0.00 | 93 | 1018.5 |
| 20260508011004 | 43 | 0 | 0.0 | 0.0 | 0.00 | 0.00 | 0.00 | 93 | 1018.5 |
| 20260508010719 | 43 | 0 | 0.0 | 0.0 | 0.00 | 0.00 | 0.00 | 93 | 1018.5 |
| 20260508010004 | 43 | 0 | 0.0 | 0.0 | 0.00 | 0.00 | 0.00 | 92 | 1018.5 |
| 20260508005719 | 43 | 0 | 0.0 | 0.0 | 0.00 | 0.00 | 0.00 | 92 | 1018.5 |
| 20260508005004 | 44 | 0 | 0.0 | 0.0 | 0.00 | 0.00 | 0.00 | 92 | 1018.5 |
| 20260508004503 | 44 | 0 | 0.0 | 0.0 | 0.00 | 0.00 | 0.00 | 92 | 1018.5 |
| 20260508004005 | 44 | 0 | 0.0 | 0.0 | 0.00 | 0.00 | 0.00 | 92 | 1018.6 |
| 20260508003505 | 44 | 0 | 0.0 | 0.0 | 0.00 | 0.00 | 0.00 | 92 | 1018.7 |
| 20260508003005 | 44 | 0 | 0.0 | 0.0 | 0.00 | 0.00 | 0.00 | 92 | 1018.6 |
| 20260508002503 | 44 | 0 | 0.0 | 0.0 | 0.00 | 0.00 | 0.00 | 92 | 1018.6 |
| 20260508002220 | 44 | 0 | 0.0 | 0.0 | 0.00 | 0.00 | 0.00 | 92 | 1018.5 |
| 20260508001503 | 44 | 0 | 0.0 | 0.0 | 0.00 | 0.00 | 0.00 | 91 | 1018.6 |
| 20260508001003 | 45 | 0 | 0.0 | 0.0 | 0.00 | 0.00 | 0.00 | 91 | 1018.6 |
| 20260508000505 | 45 | 0 | 0.0 | 0.0 | 0.00 | 0.00 | 0.00 | 91 | 1018.6 |
| 20260508000219 | 45 | 0 | 0.0 | 0.0 | 0.00 | 0.00 | 0.00 | 91 | 1018.6 |
| 20260507235507 | 45 | 0 | 0.0 | 0.0 | 0.00 | 0.00 | 0.00 | 91 | 1018.5 |
| 20260507235005 | 45 | 74 | 0.0 | 1.0 | 0.00 | 0.00 | 0.00 | 91 | 1018.4 |
| 20260507234503 | 45 | 74 | 0.0 | 2.0 | 0.00 | 0.00 | 0.00 | 91 | 1018.5 |
| 20260507234004 | 45 | 74 | 0.0 | 2.0 | 0.00 | 0.00 | 0.00 | 91 | 1018.4 |
| 20260507233504 | 46 | 74 | 0.0 | 2.0 | 0.00 | 0.00 | 0.00 | 90 | 1018.4 |
| 20260507233007 | 46 | 74 | 0.0 | 2.0 | 0.00 | 0.00 | 0.00 | 90 | 1018.4 |
| 20260507232503 | 46 | 74 | 0.0 | 1.0 | 0.00 | 0.00 | 0.00 | 90 | 1018.3 |
| 20260507232005 | 46 | 0 | 0.0 | 0.0 | 0.00 | 0.00 | 0.00 | 90 | 1018.3 |
| 20260507231718 | 46 | 0 | 0.0 | 0.0 | 0.00 | 0.00 | 0.00 | 89 | 1018.3 |
| 20260507231006 | 46 | 0 | 0.0 | 0.0 | 0.00 | 0.00 | 0.00 | 89 | 1018.3 |
| 20260507230718 | 46 | 0 | 0.0 | 0.0 | 0.00 | 0.00 | 0.00 | 89 | 1018.4 |
| 20260507230003 | 46 | 0 | 0.0 | 0.0 | 0.00 | 0.00 | 0.00 | 88 | 1018.4 |
| 20260507225505 | 46 | 0 | 0.0 | 0.0 | 0.00 | 0.00 | 0.00 | 88 | 1018.4 |
| 20260507225003 | 47 | 0 | 0.0 | 0.0 | 0.00 | 0.00 | 0.00 | 88 | 1018.5 |
| 20260507224506 | 47 | 0 | 0.0 | 0.0 | 0.00 | 0.00 | 0.00 | 88 | 1018.4 |
| 20260507224003 | 47 | 0 | 0.0 | 0.0 | 0.00 | 0.00 | 0.00 | 87 | 1018.4 |
| 20260507223718 | 47 | 0 | 0.0 | 0.0 | 0.00 | 0.00 | 0.00 | 87 | 1018.5 |
| 20260507223004 | 47 | 0 | 0.0 | 0.0 | 0.00 | 0.00 | 0.00 | 86 | 1018.5 |
| 20260507222718 | 48 | 74 | 0.0 | 1.0 | 0.00 | 0.00 | 0.00 | 86 | 1018.4 |
| 20260507222219 | 48 | 74 | 0.0 | 2.0 | 0.00 | 0.00 | 0.00 | 86 | 1018.3 |
| 20260507221504 | 48 | 74 | 0.0 | 3.0 | 0.00 | 0.00 | 0.00 | 85 | 1018.3 |
| 20260507221217 | 48 | 74 | 0.0 | 3.0 | 0.00 | 0.00 | 0.00 | 85 | 1018.3 |
| 20260507220505 | 49 | 0 | 0.0 | 0.0 | 0.00 | 0.00 | 0.00 | 84 | 1018.3 |
| 20260507220006 | 49 | 46 | 0.0 | 2.0 | 0.00 | 0.00 | 0.00 | 84 | 1018.3 |
| 20260507215505 | 49 | 50 | 0.0 | 4.0 | 0.00 | 0.00 | 0.00 | 84 | 1018.3 |
| 20260507215003 | 49 | 69 | 1.0 | 4.0 | 0.00 | 0.00 | 0.00 | 83 | 1018.3 |
| 20260507214503 | 50 | 78 | 1.0 | 4.0 | 0.00 | 0.00 | 0.00 | 83 | 1018.3 |
| 20260507214008 | 50 | 80 | 1.0 | 3.0 | 0.00 | 0.00 | 0.00 | 82 | 1018.2 |
| 20260507213503 | 50 | 100 | 1.0 | 4.0 | 0.00 | 0.00 | 0.00 | 82 | 1018.2 |
| 20260507213003 | 50 | 109 | 1.0 | 4.0 | 0.00 | 0.00 | 0.00 | 82 | 1018.3 |
| 20260507212503 | 51 | 112 | 1.0 | 3.0 | 0.00 | 0.00 | 0.00 | 81 | 1018.3 |
| 20260507212007 | 51 | 117 | 1.0 | 4.0 | 0.00 | 0.00 | 0.00 | 81 | 1018.4 |
| 20260507211503 | 51 | 113 | 2.0 | 5.0 | 0.00 | 0.00 | 0.00 | 80 | 1018.4 |
| 20260507211003 | 51 | 101 | 2.0 | 5.0 | 0.00 | 0.00 | 0.00 | 80 | 1018.3 |
| 20260507210719 | 51 | 105 | 1.0 | 4.0 | 0.00 | 0.00 | 0.00 | 80 | 1018.3 |
| 20260507210005 | 52 | 110 | 2.0 | 7.0 | 0.00 | 0.00 | 0.00 | 80 | 1018.3 |
| 20260507205505 | 52 | 112 | 2.0 | 7.0 | 0.00 | 0.00 | 0.00 | 79 | 1018.2 |
| 20260507205008 | 52 | 96 | 1.0 | 4.0 | 0.00 | 0.00 | 0.00 | 79 | 1018.2 |
| 20260507204721 | 52 | 95 | 1.0 | 4.0 | 0.00 | 0.00 | 0.00 | 79 | 1018.2 |
| 20260507204008 | 52 | 85 | 3.0 | 8.0 | 0.00 | 0.00 | 0.00 | 78 | 1018.1 |
| 20260507203504 | 52 | 85 | 2.0 | 8.0 | 0.00 | 0.00 | 0.00 | 78 | 1018.1 |
| 20260507203218 | 52 | 83 | 2.0 | 6.0 | 0.00 | 0.00 | 0.00 | 77 | 1018.0 |
| 20260507202506 | 53 | 78 | 2.0 | 6.0 | 0.00 | 0.00 | 0.00 | 77 | 1017.9 |
| 20260507202005 | 53 | 79 | 2.0 | 7.0 | 0.00 | 0.00 | 0.00 | 77 | 1018.0 |
| 20260507201503 | 53 | 76 | 2.0 | 7.0 | 0.00 | 0.00 | 0.00 | 77 | 1017.9 |
| 20260507201007 | 53 | 77 | 2.0 | 7.0 | 0.00 | 0.00 | 0.00 | 76 | 1017.8 |
| 20260507200503 | 53 | 79 | 2.0 | 7.0 | 0.00 | 0.00 | 0.00 | 76 | 1017.7 |
| 20260507200003 | 53 | 72 | 2.0 | 6.0 | 0.00 | 0.00 | 0.00 | 76 | 1017.7 |
| 20260507195504 | 54 | 74 | 2.0 | 9.0 | 0.00 | 0.00 | 0.00 | 76 | 1017.6 |
| 20260507195004 | 54 | 72 | 2.0 | 9.0 | 0.00 | 0.00 | 0.00 | 75 | 1017.6 |
| 20260507194719 | 54 | 73 | 3.0 | 7.0 | 0.00 | 0.00 | 0.00 | 75 | 1017.6 |
| 20260507194003 | 54 | 72 | 3.0 | 8.0 | 0.00 | 0.00 | 0.00 | 74 | 1017.5 |
| 20260507193503 | 54 | 66 | 2.0 | 8.0 | 0.00 | 0.00 | 0.00 | 74 | 1017.5 |
| 20260507193003 | 54 | 70 | 2.0 | 8.0 | 0.00 | 0.00 | 0.00 | 74 | 1017.5 |
| 20260507192503 | 54 | 74 | 2.0 | 6.0 | 0.00 | 0.00 | 0.00 | 74 | 1017.4 |
| 20260507192007 | 54 | 77 | 1.0 | 6.0 | 0.00 | 0.00 | 0.00 | 74 | 1017.5 |
| 20260507191505 | 55 | 81 | 2.0 | 6.0 | 0.00 | 0.00 | 0.00 | 74 | 1017.4 |
| 20260507191003 | 55 | 87 | 2.0 | 6.0 | 0.00 | 0.00 | 0.00 | 74 | 1017.4 |
| 20260507190503 | 55 | 89 | 1.0 | 6.0 | 0.00 | 0.00 | 0.00 | 73 | 1017.4 |
| 20260507190005 | 55 | 83 | 2.0 | 7.0 | 0.00 | 0.00 | 0.00 | 73 | 1017.4 |
| 20260507185504 | 55 | 83 | 3.0 | 7.0 | 0.00 | 0.00 | 0.00 | 73 | 1017.2 |
| 20260507185004 | 55 | 90 | 2.0 | 7.0 | 0.00 | 0.00 | 0.00 | 73 | 1017.2 |
| 20260507184503 | 55 | 83 | 3.0 | 10.0 | 0.00 | 0.00 | 0.00 | 72 | 1017.1 |
| 20260507184005 | 56 | 80 | 3.0 | 10.0 | 0.00 | 0.00 | 0.00 | 72 | 1017.1 |
| 20260507183511 | 56 | 85 | 3.0 | 10.0 | 0.00 | 0.00 | 0.00 | 72 | 1017.1 |
| 20260507183007 | 56 | 81 | 2.0 | 8.0 | 0.00 | 0.00 | 0.00 | 72 | 1017.1 |
| 20260507182507 | 56 | 72 | 2.0 | 8.0 | 0.00 | 0.00 | 0.00 | 71 | 1017.0 |
| 20260507182005 | 56 | 70 | 2.0 | 9.0 | 0.00 | 0.00 | 0.00 | 71 | 1017.0 |
| 20260507181505 | 56 | 68 | 3.0 | 9.0 | 0.00 | 0.00 | 0.00 | 71 | 1016.9 |
| 20260507181008 | 56 | 66 | 3.0 | 12.0 | 0.00 | 0.00 | 0.00 | 70 | 1016.9 |
| 20260507180505 | 57 | 72 | 3.0 | 12.0 | 0.00 | 0.00 | 0.00 | 70 | 1016.8 |
| 20260507180005 | 57 | 70 | 2.0 | 9.0 | 0.00 | 0.00 | 0.00 | 70 | 1016.8 |
| 20260507175507 | 57 | 70 | 2.0 | 9.0 | 0.00 | 0.00 | 0.00 | 70 | 1016.8 |
| 20260507175005 | 57 | 75 | 2.0 | 10.0 | 0.00 | 0.00 | 0.00 | 69 | 1016.6 |
| 20260507174505 | 57 | 70 | 3.0 | 10.0 | 0.00 | 0.00 | 0.00 | 69 | 1016.6 |
| 20260507174003 | 57 | 72 | 3.0 | 9.0 | 0.00 | 0.00 | 0.00 | 69 | 1016.6 |
| 20260507173503 | 58 | 79 | 3.0 | 9.0 | 0.00 | 0.00 | 0.00 | 68 | 1016.5 |
| 20260507173004 | 58 | 73 | 4.0 | 11.0 | 0.00 | 0.00 | 0.00 | 68 | 1016.6 |
| 20260507172505 | 58 | 67 | 3.0 | 11.0 | 0.00 | 0.00 | 0.00 | 67 | 1016.4 |
| 20260507172006 | 58 | 69 | 3.0 | 10.0 | 0.00 | 0.00 | 0.00 | 68 | 1016.4 |
| 20260507171503 | 58 | 71 | 3.0 | 10.0 | 0.00 | 0.00 | 0.00 | 67 | 1016.4 |
| 20260507171217 | 58 | 76 | 3.0 | 10.0 | 0.00 | 0.00 | 0.00 | 67 | 1016.4 |
| 20260507170505 | 59 | 78 | 3.0 | 13.0 | 0.00 | 0.00 | 0.00 | 66 | 1016.3 |
| 20260507170003 | 59 | 76 | 3.0 | 13.0 | 0.00 | 0.00 | 0.00 | 65 | 1016.3 |
| 20260507165503 | 60 | 72 | 2.0 | 9.0 | 0.00 | 0.00 | 0.00 | 64 | 1016.3 |
| 20260507165004 | 60 | 66 | 3.0 | 9.0 | 0.00 | 0.00 | 0.00 | 63 | 1016.2 |
| 20260507164504 | 60 | 63 | 3.0 | 9.0 | 0.00 | 0.00 | 0.00 | 62 | 1016.1 |
| 20260507164219 | 60 | 67 | 2.0 | 9.0 | 0.00 | 0.00 | 0.00 | 62 | 1016.1 |
| 20260507163503 | 61 | 80 | 2.0 | 9.0 | 0.00 | 0.00 | 0.00 | 61 | 1016.0 |
| 20260507163007 | 61 | 90 | 4.0 | 11.0 | 0.00 | 0.00 | 0.00 | 60 | 1016.0 |
| 20260507162503 | 61 | 74 | 4.0 | 11.0 | 0.00 | 0.00 | 0.00 | 59 | 1016.0 |
| 20260507162003 | 62 | 50 | 3.0 | 10.0 | 0.00 | 0.00 | 0.00 | 56 | 1015.8 |
| 20260507161504 | 62 | 36 | 1.0 | 5.0 | 0.00 | 0.00 | 0.00 | 52 | 1015.8 |
| 20260507161004 | 62 | 358 | 1.0 | 3.0 | 0.00 | 0.00 | 0.00 | 51 | 1015.7 |
| 20260507160505 | 62 | 4 | 2.0 | 5.0 | 0.00 | 0.00 | 0.00 | 48 | 1015.7 |
| 20260507160005 | 63 | 13 | 1.0 | 5.0 | 0.00 | 0.00 | 0.00 | 48 | 1015.7 |
| 20260507155505 | 63 | 35 | 2.0 | 5.0 | 0.00 | 0.00 | 0.00 | 48 | 1015.6 |
| 20260507155004 | 64 | 42 | 3.0 | 8.0 | 0.00 | 0.00 | 0.00 | 47 | 1015.6 |
| 20260507154503 | 64 | 79 | 3.0 | 8.0 | 0.00 | 0.00 | 0.00 | 49 | 1015.7 |
| 20260507154009 | 63 | 120 | 2.0 | 7.0 | 0.00 | 0.00 | 0.00 | 49 | 1015.7 |
| 20260507153504 | 62 | 78 | 2.0 | 5.0 | 0.00 | 0.00 | 0.00 | 50 | 1015.7 |
| 20260507153003 | 62 | 59 | 1.0 | 5.0 | 0.00 | 0.00 | 0.00 | 51 | 1015.7 |
| 20260507152505 | 62 | 45 | 1.0 | 4.0 | 0.00 | 0.00 | 0.00 | 51 | 1015.7 |
| 20260507152003 | 62 | 32 | 2.0 | 6.0 | 0.00 | 0.00 | 0.00 | 52 | 1015.7 |
| 20260507151507 | 63 | 36 | 2.0 | 6.0 | 0.00 | 0.00 | 0.00 | 51 | 1015.7 |
| 20260507151007 | 63 | 49 | 1.0 | 5.0 | 0.00 | 0.00 | 0.00 | 51 | 1015.7 |
| 20260507150503 | 63 | 52 | 1.0 | 5.0 | 0.00 | 0.00 | 0.00 | 50 | 1015.7 |
| 20260507150005 | 63 | 44 | 2.0 | 10.0 | 0.00 | 0.00 | 0.00 | 52 | 1015.7 |
| 20260507145505 | 63 | 62 | 2.0 | 10.0 | 0.00 | 0.00 | 0.00 | 53 | 1015.7 |
| 20260507145003 | 62 | 68 | 1.0 | 4.0 | 0.00 | 0.00 | 0.00 | 53 | 1015.6 |
| 20260507144504 | 62 | 36 | 1.0 | 4.0 | 0.00 | 0.00 | 0.00 | 54 | 1015.6 |
| 20260507144003 | 62 | 35 | 1.0 | 4.0 | 0.00 | 0.00 | 0.00 | 54 | 1015.6 |
| 20260507143505 | 62 | 33 | 2.0 | 6.0 | 0.00 | 0.00 | 0.00 | 54 | 1015.6 |
| 20260507143003 | 62 | 54 | 3.0 | 9.0 | 0.00 | 0.00 | 0.00 | 53 | 1015.7 |
| 20260507142507 | 62 | 55 | 2.0 | 9.0 | 0.00 | 0.00 | 0.00 | 52 | 1015.8 |
| 20260507142004 | 63 | 12 | 2.0 | 7.0 | 0.00 | 0.00 | 0.00 | 52 | 1015.7 |
| 20260507141503 | 63 | 4 | 3.0 | 7.0 | 0.00 | 0.00 | 0.00 | 51 | 1015.8 |
| 20260507141003 | 64 | 27 | 2.0 | 6.0 | 0.00 | 0.00 | 0.00 | 50 | 1015.8 |
| 20260507140719 | 64 | 40 | 3.0 | 7.0 | 0.00 | 0.00 | 0.00 | 48 | 1015.7 |
| 20260507140005 | 65 | 59 | 3.0 | 10.0 | 0.00 | 0.00 | 0.00 | 50 | 1015.8 |
| 20260507135503 | 64 | 67 | 2.0 | 10.0 | 0.00 | 0.00 | 0.00 | 50 | 1015.7 |
| 20260507135003 | 64 | 47 | 2.0 | 7.0 | 0.00 | 0.00 | 0.00 | 50 | 1015.7 |
| 20260507134503 | 63 | 40 | 2.0 | 5.0 | 0.00 | 0.00 | 0.00 | 50 | 1015.8 |
| 20260507134004 | 63 | 41 | 2.0 | 8.0 | 0.00 | 0.00 | 0.00 | 50 | 1015.8 |
| 20260507133504 | 63 | 42 | 2.0 | 8.0 | 0.00 | 0.00 | 0.00 | 51 | 1015.9 |
| 20260507133005 | 64 | 45 | 3.0 | 10.0 | 0.00 | 0.00 | 0.00 | 49 | 1015.8 |
| 20260507132719 | 64 | 52 | 3.0 | 10.0 | 0.00 | 0.00 | 0.00 | 51 | 1015.9 |
| 20260507132004 | 63 | 54 | 2.0 | 8.0 | 0.00 | 0.00 | 0.00 | 53 | 1015.8 |
| 20260507131716 | 62 | 12 | 2.0 | 6.0 | 0.00 | 0.00 | 0.00 | 51 | 1015.8 |
| 20260507131006 | 63 | 355 | 3.0 | 9.0 | 0.00 | 0.00 | 0.00 | 48 | 1015.8 |
| 20260507130504 | 64 | 26 | 3.0 | 10.0 | 0.00 | 0.00 | 0.00 | 49 | 1015.8 |
| 20260507130006 | 64 | 52 | 3.0 | 10.0 | 0.00 | 0.00 | 0.00 | 50 | 1015.8 |